This is the latest recevied weather packets stored in our database for station/object DM4XI-13. If no packets are shown the sender has not sent any weather packets the latest 10 day(s).
| Time | Temp. | Humidity | Pressure | Rain* | Wind** | Luminosity | Snow |
|---|---|---|---|---|---|---|---|
| 1777399145 | 16.11° C | 34% | 1016.2 hPa | 0 mm | 0.89 m/s, 253° | 12 W/m² | - |
| 1777399085 | 16.11° C | 34% | 1016.4 hPa | 0 mm | 0.89 m/s, 45° | 12 W/m² | - |
| 1777399023 | 16.11° C | 34% | 1016.2 hPa | 0 mm | 0.45 m/s, 179° | 13 W/m² | - |
| 1777398962 | 16.11° C | 34% | 1016.4 hPa | 0 mm | 1.79 m/s, 18° | 13 W/m² | - |
| 1777398901 | 16.11° C | 34% | 1016.3 hPa | 0 mm | 0.89 m/s, 143° | 14 W/m² | - |
| 1777398840 | 16.11° C | 34% | 1016.3 hPa | 0 mm | 1.34 m/s, 346° | 14 W/m² | - |
| 1777398779 | 16.11° C | 34% | 1016.4 hPa | 0 mm | 0.45 m/s, 338° | 15 W/m² | - |
| 1777398718 | 16.11° C | 34% | 1016.3 hPa | 0 mm | 1.34 m/s, 11° | 16 W/m² | - |
| 1777398657 | 16.11° C | 34% | 1016.4 hPa | 0 mm | 0.89 m/s, 358° | 17 W/m² | - |
| 1777398596 | 16.11° C | 34% | 1016.4 hPa | 0 mm | 1.34 m/s, 16° | 18 W/m² | - |
| 1777398535 | 16.11° C | 34% | 1016.1 hPa | 0 mm | 0 m/s | 19 W/m² | - |
| 1777398474 | 16.11° C | 34% | 1016.1 hPa | 0 mm | 0.45 m/s, 246° | 20 W/m² | - |
| 1777398413 | 16.11° C | 34% | 1016.1 hPa | 0 mm | 0.45 m/s, 14° | 21 W/m² | - |
| 1777398352 | 16.67° C | 33% | 1016.2 hPa | 0 mm | 0.89 m/s, 334° | 22 W/m² | - |
| 1777398291 | 16.67° C | 34% | 1016.3 hPa | 0 mm | 0.89 m/s, 319° | 23 W/m² | - |
| 1777398230 | 16.67° C | 33% | 1016.2 hPa | 0 mm | 0.45 m/s, 349° | 24 W/m² | - |
| 1777398169 | 16.67° C | 33% | 1016 hPa | 0 mm | 0.89 m/s, 359° | 25 W/m² | - |
| 1777398108 | 16.67° C | 34% | 1016.1 hPa | 0 mm | 0.45 m/s, 198° | 26 W/m² | - |
| 1777398047 | 16.67° C | 33% | 1016.2 hPa | 0 mm | 0.89 m/s, 316° | 26 W/m² | - |
| 1777397986 | 16.67° C | 33% | 1016.1 hPa | 0 mm | 0 m/s | 27 W/m² | - |
| 1777397925 | 16.67° C | 33% | 1016.2 hPa | 0 mm | 0.45 m/s, 143° | 27 W/m² | - |
| 1777397864 | 16.67° C | 33% | 1016 hPa | 0 mm | 0.89 m/s, 203° | 27 W/m² | - |
| 1777397803 | 16.67° C | 33% | 1016.1 hPa | 0 mm | 0 m/s | 28 W/m² | - |
| 1777397742 | 16.67° C | 33% | 1015.9 hPa | 0 mm | 0.45 m/s, 218° | 29 W/m² | - |
| 1777397681 | 16.67° C | 33% | 1016.2 hPa | 0 mm | 0.45 m/s, 21° | 29 W/m² | - |
* Rain latest hour (hover to see other rain measurements)
** Current wind speed in m/s (hover to see current wind gust speed)